IZ1UQG-2 Weather Reports


time (UTC)temp
C
wind
direction
speed
KPH
gust
KPH
rain 1hr
cm
rain 24hr
cm
rain mn
cm
humidity
%
barometer
mb
20260506195804 12 296 1.6 6.4 0.08 3.96 3.86 90 1009.0
20260506195704 12 300 1.6 6.4 0.08 3.96 3.86 89 1009.0
20260506195605 12 304 1.6 6.4 0.08 3.96 3.86 89 1009.0
20260506195503 12 310 1.6 6.4 0.10 3.96 3.86 89 1008.9
20260506195410 12 313 3.2 6.4 0.10 3.96 3.86 89 1008.9
20260506195306 12 316 3.2 6.4 0.10 3.96 3.86 89 1009.0
20260506195203 12 318 3.2 6.4 0.10 3.96 3.86 89 1008.9
20260506195103 12 321 3.2 6.4 0.10 3.96 3.86 89 1009.0
20260506195004 12 324 3.2 6.4 0.13 3.96 3.86 89 1008.9
20260506194905 12 326 3.2 6.4 0.13 3.96 3.86 90 1008.9
20260506194705 12 329 1.6 4.8 0.13 3.96 3.86 90 1008.9
20260506194603 12 331 1.6 4.8 0.15 3.96 3.86 90 1008.7
20260506194503 12 335 1.6 4.8 0.15 3.96 3.86 90 1008.8
20260506194204 12 339 1.6 4.8 0.15 3.96 3.86 89 1008.8
20260506194004 12 344 1.6 4.8 0.15 3.96 3.86 89 1008.8
20260506193710 12 349 1.6 4.8 0.15 3.96 3.86 89 1008.8
20260506193504 12 349 1.6 4.8 0.18 3.96 3.86 89 1008.7
20260506193404 12 351 1.6 4.8 0.20 3.96 3.86 89 1008.8
20260506193303 12 354 1.6 4.8 0.20 3.96 3.86 89 1008.7
20260506193204 12 358 1.6 4.8 0.23 3.96 3.86 89 1008.7
20260506193103 12 1 0.0 4.8 0.23 3.96 3.86 89 1008.6
20260506193004 12 350 0.0 3.2 0.25 3.96 3.86 89 1008.7
20260506192504 12 338 1.6 4.8 0.28 3.94 3.84 89 1008.7
20260506192403 12 337 1.6 4.8 0.28 3.94 3.84 88 1008.5
20260506192305 12 336 1.6 4.8 0.30 3.94 3.84 88 1008.6
20260506192104 12 334 1.6 4.8 0.30 3.94 3.84 88 1008.5
20260506192003 12 335 1.6 4.8 0.30 3.94 3.84 88 1008.5
20260506191904 12 335 1.6 4.8 0.30 3.94 3.84 88 1008.4
20260506191804 12 333 1.6 4.8 0.30 3.94 3.84 88 1008.3
20260506191710 12 330 1.6 4.8 0.30 3.94 3.84 88 1008.4
20260506191603 12 327 1.6 4.8 0.30 3.94 3.84 87 1008.3
20260506191504 12 323 1.6 4.8 0.30 3.94 3.84 87 1008.4
20260506191404 12 319 1.6 4.8 0.30 3.94 3.84 87 1008.4
20260506191304 12 309 1.6 4.8 0.30 3.94 3.84 87 1008.4
20260506191204 12 288 1.6 6.4 0.28 3.91 3.81 87 1008.3
20260506191004 12 256 3.2 6.4 0.28 3.91 3.81 86 1008.4
20260506190904 12 240 3.2 9.7 0.28 3.91 3.81 86 1008.4
20260506190803 12 227 3.2 9.7 0.28 3.91 3.81 86 1008.3
20260506190711 12 218 4.8 9.7 0.28 3.91 3.81 86 1008.3
20260506190603 12 211 4.8 9.7 0.28 3.91 3.81 85 1008.2
20260506190503 12 208 4.8 9.7 0.28 3.91 3.81 85 1008.4
20260506190403 12 206 6.4 9.7 0.25 3.91 3.81 85 1008.3
20260506190304 12 204 6.4 9.7 0.25 3.91 3.81 85 1008.2
20260506190204 12 203 6.4 11.3 0.25 3.91 3.81 84 1008.2
20260506190007 12 202 8.0 11.3 0.25 3.91 3.81 84 1008.2
20260506185903 12 200 8.0 11.3 0.23 3.89 3.78 84 1008.2
20260506185804 12 200 6.4 11.3 0.23 3.89 3.78 84 1008.2
20260506185714 12 199 6.4 11.3 0.23 3.89 3.78 84 1008.1
20260506185603 12 198 6.4 11.3 0.23 3.86 3.76 84 1008.1
20260506185505 12 198 6.4 11.3 0.23 3.86 3.76 83 1008.2
20260506185403 12 198 6.4 11.3 0.23 3.86 3.76 83 1008.2
20260506185306 12 199 4.8 11.3 0.23 3.86 3.76 83 1008.1
20260506185203 13 197 4.8 9.7 0.23 3.86 3.76 82 1008.0
20260506185104 13 197 4.8 9.7 0.23 3.86 3.76 82 1008.0
20260506185009 13 196 3.2 9.7 0.20 3.84 3.73 82 1008.1
20260506184903 13 197 3.2 8.0 0.20 3.84 3.73 82 1008.0
20260506184803 13 197 1.6 6.4 0.20 3.84 3.73 82 1008.0
20260506184703 13 199 1.6 6.4 0.20 3.84 3.73 82 1008.0
20260506184603 13 203 1.6 6.4 0.18 3.81 3.71 81 1008.0
20260506184504 13 213 1.6 6.4 0.18 3.81 3.71 81 1007.8
20260506184203 13 229 1.6 6.4 0.18 3.81 3.71 81 1007.7
20260506184105 13 234 1.6 6.4 0.15 3.81 3.71 80 1007.7
20260506184010 13 239 1.6 6.4 0.15 3.81 3.71 79 1007.8
20260506183903 13 235 1.6 6.4 0.15 3.81 3.71 79 1007.7
20260506183803 13 228 1.6 6.4 0.15 3.81 3.71 79 1007.6
20260506183704 13 215 1.6 6.4 0.15 3.78 3.68 78 1007.7
20260506183603 13 209 1.6 6.4 0.15 3.78 3.68 78 1007.7
20260506183503 13 206 1.6 4.8 0.13 3.76 3.66 77 1007.6
20260506183405 14 209 1.6 4.8 0.13 3.76 3.66 77 1007.4
20260506183303 14 211 1.6 4.8 0.10 3.73 3.63 77 1007.5
20260506183203 14 214 1.6 4.8 0.10 3.73 3.63 76 1007.5
20260506183012 14 222 1.6 4.8 0.05 3.71 3.61 76 1007.3
20260506182903 14 236 3.2 6.4 0.05 3.71 3.61 75 1007.4
20260506182703 14 266 3.2 6.4 0.03 3.66 3.56 75 1007.2
20260506182604 14 281 1.6 6.4 0.03 3.66 3.56 74 1007.3
20260506182503 14 286 1.6 6.4 0.03 3.66 3.56 74 1007.3
20260506182403 14 287 1.6 6.4 0.03 3.66 3.56 74 1007.2
20260506182203 14 284 1.6 6.4 0.00 3.63 3.53 75 1007.2
20260506182104 14 300 1.6 6.4 0.00 3.63 3.53 75 1007.1
20260506181806 14 326 3.2 8.0 0.00 3.63 3.53 75 1007.2
20260506181707 14 323 3.2 8.0 0.00 3.63 3.53 74 1007.1
20260506181607 14 324 3.2 11.3 0.00 3.63 3.53 74 1007.1
20260506181406 14 324 3.2 11.3 0.00 3.63 3.53 74 1007.1
20260506181314 14 329 3.2 11.3 0.00 3.63 3.53 74 1007.2
20260506181207 14 331 4.8 11.3 0.00 3.63 3.53 74 1007.1
20260506181107 14 328 4.8 11.3 0.00 3.63 3.53 73 1007.1
20260506180907 14 325 4.8 11.3 0.00 3.63 3.53 73 1007.1
20260506180807 14 326 4.8 11.3 0.00 3.63 3.53 73 1007.1
20260506180707 14 327 4.8 11.3 0.00 3.63 3.53 73 1007.1
20260506180610 14 333 4.8 9.7 0.00 3.63 3.53 73 1007.1
20260506180408 14 340 4.8 11.3 0.00 3.63 3.53 73 1007.1
20260506180320 14 350 4.8 11.3 0.00 3.63 3.53 73 1007.0
20260506180207 14 13 4.8 11.3 0.00 3.63 3.53 72 1007.1
20260506180107 14 42 4.8 11.3 0.00 3.63 3.53 72 1007.1
20260506180007 14 61 4.8 11.3 0.00 3.63 3.53 72 1007.1
20260506175908 14 73 3.2 11.3 0.00 3.63 3.53 72 1007.0
20260506175808 14 77 3.2 11.3 0.00 3.63 3.53 72 1007.0
20260506175708 14 87 3.2 11.3 0.00 3.63 3.53 72 1006.9
20260506175608 14 92 3.2 11.3 0.00 3.63 3.53 72 1006.9
20260506175508 14 95 4.8 11.3 0.00 3.63 3.53 72 1006.9
20260506175407 14 89 4.8 12.9 0.00 3.63 3.53 72 1006.8
20260506175316 14 85 4.8 12.9 0.00 3.63 3.53 72 1006.8
20260506175007 14 63 4.8 12.9 0.00 3.63 3.53 72 1006.7
20260506174907 14 63 6.4 12.9 0.00 3.73 3.53 72 1006.7
20260506174607 14 50 6.4 12.9 0.00 3.73 3.53 72 1006.7
20260506174408 14 37 4.8 12.9 0.00 3.73 3.53 71 1006.6
20260506174316 14 29 4.8 9.7 0.00 3.73 3.53 71 1006.6
20260506174207 14 22 4.8 9.7 0.00 3.73 3.53 72 1006.5
20260506174107 14 17 4.8 9.7 0.00 3.73 3.53 72 1006.4
20260506174007 14 15 4.8 9.7 0.00 3.73 3.53 73 1006.4
20260506173907 14 8 4.8 9.7 0.00 3.73 3.53 73 1006.4
20260506173807 14 357 4.8 9.7 0.00 3.73 3.53 73 1006.3
20260506173707 14 351 6.4 9.7 0.00 3.73 3.53 73 1006.3
20260506173608 14 344 6.4 11.3 0.00 3.73 3.53 73 1006.2
20260506173316 14 334 8.0 11.3 0.00 3.73 3.53 73 1006.3
20260506173107 14 330 8.0 11.3 0.00 3.73 3.53 73 1006.2
20260506173007 14 328 8.0 11.3 0.00 3.73 3.53 73 1006.3
20260506172907 14 328 8.0 14.5 0.00 3.73 3.53 73 1006.4
20260506172707 14 328 9.7 14.5 0.00 3.73 3.53 73 1006.3
20260506172607 14 328 9.7 14.5 0.00 3.73 3.53 73 1006.3
20260506172508 14 329 9.7 14.5 0.00 3.73 3.53 73 1006.2
20260506172407 14 331 8.0 14.5 0.00 3.73 3.53 74 1006.3
20260506172313 14 330 9.7 14.5 0.00 3.73 3.53 73 1006.3
20260506172207 14 329 9.7 14.5 0.00 3.73 3.53 74 1006.3
20260506172107 14 329 9.7 14.5 0.00 3.73 3.53 73 1006.2
20260506172007 14 328 9.7 14.5 0.00 3.73 3.53 73 1006.3
20260506171807 14 328 8.0 12.9 0.00 3.73 3.53 73 1006.4
20260506171707 14 329 8.0 12.9 0.00 3.73 3.53 74 1006.4
20260506171507 14 329 8.0 12.9 0.00 3.73 3.53 74 1006.5
20260506171407 14 328 8.0 12.9 0.00 3.73 3.53 73 1006.4
20260506171107 14 329 4.8 12.9 0.00 3.73 3.53 73 1006.5
20260506171007 14 332 4.8 12.9 0.00 3.73 3.53 73 1006.6
20260506170907 14 334 3.2 9.7 0.00 3.73 3.53 72 1006.5
20260506170807 14 335 3.2 9.7 0.00 3.73 3.53 72 1006.5
20260506170707 14 337 3.2 8.0 0.00 3.73 3.53 72 1006.5
20260506170614 14 340 1.6 8.0 0.00 3.73 3.53 72 1006.4
20260506170507 14 343 1.6 8.0 0.00 3.73 3.53 72 1006.5
20260506170407 14 352 1.6 6.4 0.00 3.73 3.53 72 1006.4
20260506170307 14 10 1.6 6.4 0.00 3.73 3.53 71 1006.4
20260506170207 14 111 1.6 4.8 0.00 3.73 3.53 72 1006.4
20260506170107 14 119 0.0 3.2 0.00 3.73 3.53 71 1006.4
20260506170008 14 125 0.0 3.2 0.00 3.73 3.53 71 1006.4
20260506165907 14 134 0.0 3.2 0.00 3.73 3.53 71 1006.4
20260506165807 14 142 0.0 3.2 0.00 3.73 3.53 71 1006.3
20260506165613 14 143 0.0 3.2 0.00 3.73 3.53 72 1006.3
20260506165508 14 139 1.6 3.2 0.00 3.73 3.53 73 1006.4
20260506165406 14 146 0.0 3.2 0.00 3.73 3.53 73 1006.2
20260506165307 14 162 1.6 3.2 0.00 3.73 3.53 73 1006.3
20260506165207 14 277 0.0 3.2 0.00 3.73 3.53 74 1006.2
20260506165107 14 301 1.6 3.2 0.00 3.73 3.53 74 1006.2
20260506164807 14 332 1.6 4.8 0.00 3.73 3.53 72 1006.1
20260506164612 14 333 1.6 8.0 0.00 3.73 3.53 71 1006.0
20260506164407 14 335 3.2 9.7 0.00 3.73 3.53 70 1006.0
20260506164207 14 336 4.8 11.3 0.00 3.73 3.53 70 1006.0
20260506164107 14 338 6.4 11.3 0.00 3.73 3.53 70 1006.0
20260506164007 14 338 6.4 11.3 0.00 3.73 3.53 70 1006.0
20260506163907 14 339 6.4 14.5 0.00 3.73 3.53 70 1006.1
20260506163807 14 344 6.4 14.5 0.00 3.73 3.53 70 1006.2
20260506163614 14 3 8.0 14.5 0.00 3.73 3.53 70 1006.2
20260506163507 14 19 8.0 17.7 0.00 3.73 3.53 70 1006.2
20260506163407 14 37 8.0 17.7 0.00 3.73 3.53 70 1006.1
20260506163307 15 51 9.7 19.3 0.00 3.73 3.53 69 1006.1
20260506163207 15 56 9.7 22.5 0.00 3.73 3.53 68 1006.2
20260506163007 15 64 11.3 22.5 0.00 3.73 3.53 67 1006.1
20260506162907 15 67 9.7 22.5 0.00 3.73 3.53 67 1006.2
20260506162807 15 67 11.3 22.5 0.00 3.73 3.53 66 1006.2
20260506162707 15 65 11.3 22.5 0.00 3.73 3.53 65 1006.2
20260506162613 15 62 11.3 22.5 0.00 3.73 3.53 65 1006.2
20260506162508 15 61 11.3 22.5 0.00 3.73 3.53 65 1006.0
20260506162407 15 57 9.7 22.5 0.00 3.73 3.53 65 1006.0
20260506162307 15 56 9.7 22.5 0.00 3.73 3.53 66 1006.0
20260506161907 15 65 9.7 19.3 0.00 3.73 3.53 66 1005.8
20260506161807 15 68 9.7 19.3 0.00 3.73 3.53 66 1005.8
20260506161707 15 71 9.7 19.3 0.00 3.73 3.53 67 1005.7
20260506161613 15 73 9.7 20.9 0.00 3.73 3.53 67 1005.7
20260506161507 15 74 9.7 20.9 0.00 3.73 3.53 68 1005.6
20260506161407 14 75 11.3 20.9 0.00 3.73 3.53 68 1005.7
20260506161307 14 73 11.3 20.9 0.00 3.73 3.53 68 1005.7
20260506161207 14 71 11.3 20.9 0.00 3.73 3.53 67 1005.6
20260506161107 14 72 12.9 20.9 0.00 3.73 3.53 67 1005.6
20260506160907 14 76 12.9 20.9 0.00 3.73 3.53 67 1005.6
20260506160807 14 75 12.9 20.9 0.00 3.73 3.53 67 1005.6
20260506160607 14 65 8.0 9.7 0.00 3.73 3.53 69 1005.6
20260506160507 14 76 8.0 9.7 0.00 3.73 3.53 69 1005.7
20260506160307 14 97 9.7 9.7 0.00 3.73 3.53 69 1005.6
20260506073207 11 311 3.2 6.4 0.25 0.66 0.25 93 1006.4
20260506073107 11 306 3.2 6.4 0.23 0.64 0.23 93 1006.3
20260506073008 11 301 3.2 6.4 0.23 0.61 0.23 93 1006.4
20260506072907 11 299 3.2 6.4 0.00 0.61 0.20 93 1006.3
20260506072809 11 300 3.2 6.4 0.00 0.58 0.18 93 1006.4
20260506072707 11 300 3.2 6.4 0.00 0.58 0.18 93 1006.5
20260506072607 11 301 4.8 6.4 0.00 0.56 0.15 93 1006.4
20260506072519 11 307 3.2 6.4 0.00 0.51 0.13 93 1006.5
20260506072406 11 316 3.2 6.4 0.00 0.61 0.10 93 1006.5
20260506072308 11 318 3.2 6.4 0.00 0.61 0.10 93 1006.6
20260506071907 11 327 4.8 8.0 0.00 0.61 0.10 93 1006.7
20260506071809 11 331 4.8 8.0 0.00 0.58 0.08 93 1006.7
20260506071707 11 334 4.8 9.7 0.00 0.58 0.08 93 1006.7
20260506071606 11 335 4.8 9.7 0.00 0.58 0.08 93 1006.7
20260506071518 11 336 4.8 9.7 0.00 0.58 0.08 93 1006.7
20260506071407 11 337 4.8 9.7 0.00 0.69 0.08 93 1006.8
20260506071307 11 338 4.8 9.7 0.00 0.66 0.05 93 1006.7
20260506071207 11 340 4.8 9.7 0.00 0.66 0.05 93 1006.7
20260506071107 11 342 4.8 9.7 0.00 0.66 0.05 93 1006.7
20260506070906 11 340 3.2 9.7 0.00 0.66 0.05 93 1006.7
20260506070808 11 338 3.2 9.7 0.00 0.66 0.05 93 1006.7
20260506070607 11 332 1.6 8.0 0.00 0.64 0.05 93 1006.8
20260506070517 11 320 1.6 6.4 0.00 0.64 0.05 93 1006.8
20260506070406 11 240 1.6 6.4 0.00 0.64 0.05 93 1006.8
20260506070306 11 234 1.6 6.4 0.00 0.61 0.03 93 1006.8
20260506070207 11 229 1.6 6.4 0.00 0.61 0.03 93 1006.7
20260506070107 11 236 1.6 6.4 0.00 0.61 0.03 93 1006.8
20260506062405 11 274 3.2 9.7 0.58 1.78 0.84 93 1006.7
20260506062305 11 264 3.2 8.0 0.58 1.75 0.81 93 1006.6
20260506062205 11 262 1.6 6.4 0.58 1.78 0.81 93 1006.8
20260506062004 11 286 1.6 4.8 0.53 1.73 0.76 93 1006.7
20260506061910 11 299 1.6 8.0 0.51 1.73 0.74 93 1006.6
20260506061804 11 310 3.2 8.0 0.53 1.73 0.71 93 1006.6
20260506061704 11 319 3.2 8.0 0.51 1.73 0.71 93 1006.6
20260506061403 11 315 3.2 8.0 0.51 1.70 0.66 93 1006.6
20260506061303 11 313 3.2 8.0 0.51 1.68 0.64 93 1006.6
20260506061204 11 310 3.2 8.0 0.51 1.70 0.64 93 1006.6
20260506061104 11 309 3.2 8.0 0.56 1.70 0.64 93 1006.6
20260506061004 11 310 3.2 8.0 0.53 1.68 0.61 93 1006.5
20260506060903 11 312 3.2 8.0 0.53 1.65 0.61 93 1006.5
20260506060805 11 315 3.2 8.0 0.53 1.65 0.61 93 1006.5
20260506060703 11 318 3.2 6.4 0.51 1.65 0.58 93 1006.6
20260506060605 11 324 3.2 6.4 0.51 1.65 0.58 93 1006.6
20260506060405 11 325 3.2 6.4 0.51 1.65 0.56 93 1006.5
20260506060311 11 333 3.2 6.4 0.51 1.65 0.56 93 1006.6
20260506060204 11 338 3.2 6.4 0.51 1.68 0.56 93 1006.6
20260506060104 11 339 3.2 6.4 0.48 1.65 0.53 93 1006.5
20260506051404 11 345 3.2 4.8 0.15 1.50 0.15 93 1006.9
20260506051304 11 346 3.2 4.8 0.13 1.47 0.13 93 1007.0
20260506051203 11 347 3.2 4.8 0.08 1.45 0.08 93 1006.9
20260506051004 11 346 1.6 4.8 0.08 1.45 0.08 93 1007.0
20260506050904 11 345 1.6 4.8 0.05 1.45 0.05 93 1007.1
20260506050514 11 349 1.6 3.2 0.05 1.45 0.05 93 1007.0
20260506050304 11 350 0.0 3.2 0.05 1.45 0.05 93 1007.1
20260506045104 11 336 3.2 4.8 0.05 1.52 0.05 92 1007.2
20260506045004 11 334 3.2 4.8 0.05 1.52 0.05 92 1007.1
20260506044904 11 332 3.2 4.8 0.05 1.52 0.05 93 1007.1
20260506044804 11 330 3.2 4.8 0.05 1.52 0.05 93 1007.2
20260506044703 11 330 3.2 4.8 0.05 1.52 0.05 92 1007.2
20260506044604 11 327 1.6 4.8 0.05 1.52 0.05 92 1007.2
20260506044504 11 328 1.6 4.8 0.05 1.52 0.05 92 1007.2
20260506044403 11 329 1.6 4.8 0.05 1.52 0.05 93 1007.2
20260506044204 11 328 1.6 4.8 0.03 1.50 0.03 93 1007.3
20260506044104 11 330 1.6 4.8 0.03 1.50 0.03 93 1007.3
20260506044004 11 329 3.2 4.8 0.00 1.50 0.00 92 1007.3
20260506043804 11 328 3.2 4.8 0.00 1.50 0.00 92 1007.3
20260506043704 11 328 3.2 4.8 0.00 1.50 0.00 93 1007.2
20260506043504 11 325 3.2 4.8 0.00 1.50 0.00 92 1007.3
20260506043404 11 323 3.2 4.8 0.00 1.50 0.00 92 1007.3
20260506043303 11 321 3.2 4.8 0.00 1.52 0.00 92 1007.4
20260506043104 11 314 3.2 4.8 0.00 1.52 0.00 92 1007.4
20260506043004 11 311 3.2 4.8 0.00 1.52 0.00 93 1007.4
20260506042904 11 312 3.2 4.8 0.00 1.52 0.00 93 1007.4
20260506042803 11 311 3.2 4.8 0.00 1.52 0.00 92 1007.4
20260506042704 11 310 3.2 4.8 0.00 1.52 0.00 92 1007.4
20260506042504 11 315 3.2 4.8 0.00 1.52 0.00 93 1007.4
20260506042404 11 319 3.2 4.8 0.00 1.52 0.00 92 1007.4
20260506042305 11 322 3.2 4.8 0.00 1.52 0.00 92 1007.4
20260506042204 11 326 3.2 6.4 0.00 1.52 0.00 92 1007.5
20260506042104 11 329 3.2 6.4 0.00 1.52 0.00 92 1007.4
20260506042004 11 332 3.2 6.4 0.00 1.52 0.00 92 1007.5
20260506041904 11 335 4.8 6.4 0.00 1.55 0.00 92 1007.5
20260506041804 11 339 4.8 6.4 0.00 1.55 0.00 92 1007.5
20260506041705 11 343 4.8 6.4 0.00 1.55 0.00 92 1007.5
20260506041603 11 345 4.8 6.4 0.00 1.55 0.00 92 1007.6
20260506041504 11 346 4.8 6.4 0.00 1.55 0.00 92 1007.5
20260506041403 11 346 4.8 6.4 0.00 1.55 0.00 92 1007.7
20260506041303 11 346 4.8 6.4 0.00 1.55 0.00 92 1007.6
20260506041205 11 347 4.8 6.4 0.00 1.55 0.00 92 1007.6
20260506041103 11 349 4.8 6.4 0.00 1.55 0.00 92 1007.6
20260506041004 11 350 4.8 6.4 0.00 1.55 0.00 92 1007.6
20260506040905 11 350 3.2 6.4 0.00 1.55 0.00 92 1007.5
20260506040804 11 349 3.2 6.4 0.00 1.55 0.00 92 1007.6
20260506040703 11 349 3.2 6.4 0.00 1.55 0.00 92 1007.6
20260506040504 11 349 3.2 6.4 0.00 1.55 0.00 92 1007.7
20260506040305 11 351 3.2 4.8 0.00 1.55 0.00 92 1007.6
20260506040204 11 354 3.2 4.8 0.00 1.55 0.00 92 1007.6
20260506040104 11 354 3.2 4.8 0.00 1.55 0.00 92 1007.6
20260506040004 11 355 3.2 4.8 0.00 1.55 0.00 92 1007.6
20260506035905 11 356 3.2 4.8 0.00 1.55 0.00 92 1007.6
20260506035804 11 357 3.2 4.8 0.00 1.55 0.00 92 1007.7
20260506035604 11 357 3.2 6.4 0.00 1.55 0.00 92 1007.7
20260506035504 11 355 3.2 6.4 0.00 1.55 0.00 92 1007.7
20260506035404 11 355 3.2 6.4 0.00 1.55 0.00 92 1007.6
20260506035306 11 352 3.2 6.4 0.00 1.55 0.00 92 1007.7
20260506035205 11 349 3.2 6.4 0.00 1.55 0.00 92 1007.7
20260506035004 11 347 4.8 6.4 0.00 1.55 0.00 92 1007.7
20260506034904 11 347 4.8 6.4 0.00 1.55 0.00 92 1007.7
20260506034804 11 345 4.8 6.4 0.00 1.55 0.00 92 1007.7
20260506034704 11 343 4.8 6.4 0.00 1.55 0.00 92 1007.7
20260506034604 11 341 4.8 6.4 0.00 1.55 0.00 92 1007.7
20260506034504 11 341 4.8 6.4 0.00 1.55 0.00 92 1007.7
20260506034405 11 338 3.2 6.4 0.00 1.55 0.00 92 1007.7
20260506034304 11 337 3.2 6.4 0.00 1.55 0.00 92 1007.8
20260506034203 11 334 3.2 6.4 0.00 1.55 0.00 92 1007.7
20260506034104 11 332 3.2 6.4 0.00 1.55 0.00 92 1007.8
20260506034004 11 330 3.2 6.4 0.00 1.57 0.00 92 1007.8
20260506033904 11 326 3.2 6.4 0.00 1.57 0.00 92 1007.7
20260506033704 11 327 3.2 4.8 0.00 1.57 0.00 92 1007.9
20260506033604 11 326 3.2 4.8 0.00 1.57 0.00 92 1007.8
20260506033504 11 326 3.2 4.8 0.00 1.57 0.00 92 1007.7
20260506033404 11 327 3.2 6.4 0.00 1.57 0.00 92 1007.7
20260506033304 11 327 3.2 6.4 0.00 1.57 0.00 92 1007.8
20260506033104 11 328 3.2 6.4 0.00 1.57 0.00 92 1007.8
20260506032904 11 327 3.2 6.4 0.00 1.57 0.00 92 1007.8
20260506032804 11 326 3.2 6.4 0.00 1.57 0.00 92 1007.8
20260506032604 11 325 3.2 6.4 0.00 1.57 0.00 92 1007.9
20260506032504 11 325 3.2 6.4 0.00 1.57 0.00 92 1007.9
20260506032403 11 323 3.2 6.4 0.00 1.57 0.00 92 1007.8
20260506032306 11 322 1.6 4.8 0.00 1.57 0.00 92 1007.9
20260506032204 11 323 1.6 4.8 0.00 1.57 0.00 92 1007.9
20260506032004 11 323 1.6 4.8 0.00 1.57 0.00 92 1007.9
20260506031905 11 323 1.6 4.8 0.00 1.57 0.00 92 1008.0
20260506031803 11 323 1.6 4.8 0.00 1.60 0.00 92 1007.9
20260506031704 11 323 1.6 4.8 0.00 1.60 0.00 92 1008.0
20260506031604 11 323 1.6 4.8 0.00 1.60 0.00 92 1008.0
20260506031404 11 323 3.2 4.8 0.00 1.60 0.00 92 1008.1
20260506031305 11 323 3.2 4.8 0.00 1.60 0.00 92 1008.1
20260506031204 11 323 3.2 4.8 0.00 1.60 0.00 92 1008.2
20260506031104 11 323 3.2 4.8 0.00 1.60 0.00 92 1008.1
20260506031004 11 323 1.6 4.8 0.00 1.60 0.00 92 1008.2
20260506030803 11 323 1.6 4.8 0.00 1.60 0.00 92 1008.2
20260506030707 11 323 1.6 4.8 0.00 1.60 0.00 92 1008.2
20260506030604 11 323 1.6 3.2 0.00 1.60 0.00 92 1008.3
20260506030504 11 323 1.6 3.2 0.00 1.60 0.00 92 1008.3
20260506030404 11 323 1.6 3.2 0.00 1.60 0.00 92 1008.4
20260506030303 11 323 1.6 3.2 0.00 1.60 0.00 92 1008.3
20260506030203 11 323 1.6 4.8 0.00 1.60 0.00 92 1008.3
20260506030103 11 323 1.6 4.8 0.00 1.60 0.00 92 1008.2
20260506030004 11 323 1.6 4.8 0.00 1.60 0.00 92 1008.3
20260506025907 11 323 1.6 4.8 0.00 1.60 0.00 92 1008.3
20260506025704 11 323 3.2 4.8 0.00 1.60 0.00 92 1008.3
20260506025504 11 323 3.2 4.8 0.00 1.60 0.00 92 1008.5
20260506025404 11 323 3.2 4.8 0.00 1.60 0.00 92 1008.5
20260506025305 11 323 3.2 6.4 0.00 1.60 0.00 92 1008.5
20260506025204 11 323 3.2 6.4 0.00 1.60 0.00 92 1008.5
20260506025104 11 324 3.2 6.4 0.00 1.60 0.00 92 1008.5
20260506025004 11 325 3.2 6.4 0.00 1.60 0.00 92 1008.6
20260506024904 11 325 3.2 6.4 0.00 1.60 0.00 92 1008.6
20260506024804 11 326 3.2 6.4 0.00 1.60 0.00 92 1008.6
20260506024710 11 329 3.2 6.4 0.00 1.60 0.00 92 1008.6
20260506024504 11 334 3.2 6.4 0.00 1.60 0.00 92 1008.6
20260506024416 11 336 3.2 6.4 0.00 1.60 0.00 92 1008.6
20260506024304 11 338 3.2 6.4 0.00 1.60 0.00 92 1008.6
20260506024204 11 339 3.2 6.4 0.00 1.60 0.00 92 1008.6
20260506024004 11 344 3.2 6.4 0.00 1.60 0.00 92 1008.6
20260506023904 11 347 3.2 6.4 0.00 1.60 0.00 92 1008.6
20260506023803 11 349 3.2 6.4 0.00 1.60 0.00 92 1008.7
20260506023704 11 349 1.6 6.4 0.00 1.60 0.00 92 1008.7
20260506023603 11 348 1.6 6.4 0.00 1.60 0.00 92 1008.6
20260506023504 11 349 1.6 6.4 0.00 1.60 0.00 92 1008.6
20260506023404 11 351 1.6 6.4 0.00 1.60 0.00 92 1008.6
20260506023304 11 352 1.6 6.4 0.00 1.60 0.00 92 1008.5
20260506023203 11 353 1.6 6.4 0.00 1.60 0.00 92 1008.5
20260506023103 11 345 0.0 3.2 0.00 1.60 0.00 92 1008.6
20260506023004 11 330 0.0 1.6 0.00 1.60 0.00 92 1008.6
20260506022905 11 330 0.0 1.6 0.00 1.60 0.00 92 1008.6
20260506022810 11 330 0.0 1.6 0.00 1.60 0.00 92 1008.7
20260506022604 11 327 0.0 6.4 0.00 1.60 0.00 92 1008.8
20260506022516 11 321 1.6 6.4 0.00 1.60 0.00 92 1008.8
20260506022403 11 320 1.6 6.4 0.00 1.60 0.00 92 1008.8
20260506022306 11 325 1.6 6.4 0.00 1.60 0.00 92 1008.8
20260506022203 11 326 3.2 6.4 0.00 1.60 0.00 92 1008.8
20260506022104 11 329 3.2 6.4 0.00 1.60 0.00 92 1008.8
20260506022004 11 332 3.2 6.4 0.00 1.60 0.00 92 1008.7
20260506021904 11 332 3.2 6.4 0.00 1.60 0.00 92 1008.9
20260506021705 11 333 3.2 6.4 0.00 1.60 0.00 92 1008.7
20260506021604 11 335 3.2 6.4 0.00 1.60 0.00 92 1008.8
20260506021504 11 339 1.6 6.4 0.00 1.60 0.00 91 1008.8
20260506021404 11 345 1.6 6.4 0.00 1.60 0.00 92 1008.8
20260506021304 11 344 1.6 4.8 0.00 1.60 0.00 92 1008.8
20260506021206 11 353 0.0 4.8 0.00 1.60 0.00 92 1008.8
20260506020912 11 357 0.0 1.6 0.00 1.60 0.00 92 1008.8
20260506020803 11 357 0.0 3.2 0.00 1.60 0.00 92 1008.9
20260506020704 11 357 0.0 3.2 0.00 1.60 0.00 91 1008.9
20260506020615 11 358 1.6 3.2 0.00 1.60 0.00 91 1008.9
20260506020504 11 355 1.6 3.2 0.00 1.60 0.00 91 1008.9
20260506020404 11 347 1.6 6.4 0.00 1.60 0.00 92 1008.9
20260506020303 11 342 1.6 6.4 0.00 1.60 0.00 92 1009.0
20260506020203 11 340 3.2 8.0 0.00 1.60 0.00 92 1009.0
20260506020004 11 337 3.2 8.0 0.00 1.60 0.00 92 1009.0
20260506015904 11 336 3.2 8.0 0.00 1.60 0.00 92 1009.0
20260506015803 11 335 3.2 8.0 0.00 1.60 0.00 92 1009.0
20260506015704 11 333 3.2 8.0 0.00 1.60 0.00 91 1008.9
20260506015604 11 331 3.2 8.0 0.00 1.60 0.00 91 1009.0
20260506015403 11 332 3.2 8.0 0.00 1.60 0.00 91 1008.9
20260506015306 11 332 1.6 8.0 0.00 1.60 0.00 91 1008.9
20260506015204 11 333 1.6 4.8 0.00 1.60 0.00 91 1008.9
20260506014904 12 333 1.6 3.2 0.00 1.60 0.00 91 1009.0
20260506014804 12 331 1.6 3.2 0.00 1.60 0.00 91 1009.0
20260506014716 12 330 1.6 3.2 0.00 1.60 0.00 91 1009.0
20260506014604 12 329 1.6 3.2 0.00 1.60 0.00 91 1009.0
20260506014504 12 326 1.6 3.2 0.00 1.60 0.00 92 1009.0
20260506014304 12 323 1.6 3.2 0.00 1.60 0.00 91 1009.0
20260506014203 12 322 1.6 3.2 0.00 1.60 0.00 91 1008.9
20260506014104 12 318 1.6 3.2 0.00 1.60 0.00 91 1008.9
20260506014004 12 314 0.0 3.2 0.00 1.60 0.00 92 1009.0
20260506013903 12 307 0.0 3.2 0.00 1.60 0.00 92 1009.0
20260506013804 12 301 0.0 1.6 0.00 1.60 0.00 92 1009.0
20260506013704 12 301 0.0 1.6 0.00 1.60 0.00 92 1009.0
20260506013604 11 301 0.0 1.6 0.00 1.60 0.00 92 1009.0
20260506013504 11 302 0.0 3.2 0.00 1.60 0.00 92 1009.0
20260506013411 11 311 0.0 3.2 0.00 1.60 0.00 91 1009.1
20260506013303 11 317 0.0 3.2 0.00 1.60 0.00 91 1009.0
20260506013004 11 325 0.0 3.2 0.00 1.60 0.00 92 1009.0
20260506012904 11 328 0.0 3.2 0.00 1.60 0.00 92 1009.0
20260506012803 11 333 0.0 3.2 0.00 1.60 0.00 92 1009.0
20260506012704 11 334 0.0 3.2 0.00 1.60 0.00 92 1008.9
20260506012603 11 336 0.0 3.2 0.00 1.60 0.00 92 1009.1
20260506012504 11 346 0.0 3.2 0.00 1.60 0.00 92 1009.0
20260506012404 11 350 0.0 1.6 0.00 1.60 0.00 92 1009.1
20260506012307 11 350 0.0 1.6 0.00 1.60 0.00 92 1009.2
20260506012203 11 350 0.0 1.6 0.00 1.60 0.00 92 1009.0
20260506012104 11 350 0.0 1.6 0.00 1.60 0.00 92 1009.0
20260506011809 11 349 1.6 3.2 0.00 1.60 0.00 92 1009.0
20260506011704 12 349 1.6 3.2 0.00 1.60 0.00 92 1009.1
20260506011604 12 349 1.6 3.2 0.00 1.60 0.00 92 1009.1
20260506011516 12 349 1.6 3.2 0.00 1.60 0.00 92 1009.0
20260506011403 11 349 1.6 3.2 0.00 1.60 0.00 92 1009.2
20260506011304 11 349 1.6 3.2 0.00 1.60 0.00 92 1009.1
20260506011203 11 349 1.6 3.2 0.00 1.60 0.00 92 1009.2
20260506011103 11 349 1.6 3.2 0.00 1.60 0.00 92 1009.1
20260506010803 11 350 0.0 3.2 0.00 1.60 0.00 92 1009.2
20260506010505 11 349 1.6 3.2 0.00 1.60 0.00 92 1009.3
20260506010404 11 347 1.6 4.8 0.00 1.60 0.00 92 1009.3
20260506010204 11 344 1.6 4.8 0.00 1.60 0.00 92 1009.5
20260506010104 11 345 1.6 4.8 0.00 1.60 0.00 92 1009.4
20260506010004 11 345 1.6 4.8 0.00 1.60 0.00 92 1009.4
20260506005904 11 345 1.6 4.8 0.00 1.60 0.00 92 1009.6
20260506005804 11 345 1.6 4.8 0.00 1.60 0.00 92 1009.5
20260506005703 11 345 1.6 4.8 0.00 1.60 0.00 92 1009.5
20260506005504 11 346 1.6 4.8 0.00 1.60 0.00 92 1009.5
20260506005404 11 352 1.6 3.2 0.00 1.60 0.00 91 1009.5
20260506005309 11 353 1.6 3.2 0.00 1.60 0.00 91 1009.4
20260506005204 12 350 1.6 3.2 0.00 1.60 0.00 92 1009.5
20260506005103 11 347 1.6 3.2 0.00 1.60 0.00 92 1009.4
20260506005016 11 346 1.6 3.2 0.00 1.60 0.00 92 1009.5
20260506004804 11 338 1.6 3.2 0.00 1.60 0.00 92 1009.5
20260506004704 11 336 1.6 3.2 0.00 1.60 0.00 91 1009.5
20260506004604 11 331 1.6 3.2 0.00 1.60 0.00 91 1009.6
20260506004504 11 326 1.6 3.2 0.00 1.60 0.00 91 1009.5
20260506004404 11 317 1.6 3.2 0.00 1.60 0.00 91 1009.6
20260506004304 11 315 1.6 3.2 0.00 1.60 0.00 92 1009.6
20260506004103 11 315 1.6 3.2 0.00 1.60 0.00 92 1009.7
20260506004004 11 315 1.6 3.2 0.00 1.60 0.00 91 1009.8
20260506003904 11 316 1.6 4.8 0.00 1.60 0.00 91 1009.8
20260506003803 11 318 3.2 6.4 0.00 1.60 0.00 91 1009.8
20260506003704 11 318 3.2 6.4 0.00 1.60 0.00 91 1009.8
20260506003604 11 317 3.2 6.4 0.00 1.60 0.00 91 1009.8
20260506003504 11 314 3.2 6.4 0.00 1.60 0.00 91 1009.7
20260506003409 11 312 3.2 6.4 0.00 1.60 0.00 92 1009.8
20260506003303 11 315 3.2 6.4 0.00 1.60 0.00 91 1009.8
20260506003204 11 317 3.2 6.4 0.00 1.60 0.00 91 1009.8
20260506003116 11 318 3.2 6.4 0.00 1.60 0.00 91 1009.7
20260506002905 11 321 3.2 6.4 0.00 1.60 0.00 91 1009.7
20260506002804 11 320 3.2 6.4 0.00 1.60 0.00 92 1009.6
20260506002704 11 322 3.2 6.4 0.00 1.60 0.00 92 1009.7
20260506002604 11 325 3.2 6.4 0.00 1.60 0.00 92 1009.6
20260506002504 11 331 1.6 4.8 0.00 1.60 0.00 91 1009.7
20260506002403 11 335 1.6 4.8 0.00 1.60 0.00 91 1009.7
20260506002306 11 335 1.6 4.8 0.00 1.60 0.00 91 1009.7
20260506002204 11 335 1.6 4.8 0.00 1.60 0.00 91 1009.6
20260506002108 11 335 1.6 3.2 0.00 1.60 0.00 91 1009.6
20260506002004 11 335 1.6 3.2 0.00 1.60 0.00 91 1009.6
20260506001904 11 335 1.6 3.2 0.00 1.60 0.00 91 1009.6
20260506001815 11 335 1.6 3.2 0.00 1.60 0.00 91 1009.7
20260506001704 11 336 1.6 4.8 0.00 1.60 0.00 91 1009.7
20260506001603 11 336 1.6 4.8 0.00 1.60 0.00 92 1009.6
20260506001504 11 335 1.6 4.8 0.00 1.60 0.00 91 1009.7
20260506001303 11 335 3.2 4.8 0.00 1.60 0.00 92 1009.8
20260506001205 11 335 3.2 4.8 0.00 1.60 0.00 91 1009.8
20260506001004 11 335 3.2 4.8 0.00 1.60 0.00 91 1009.8
20260506000804 11 335 3.2 4.8 0.00 1.60 0.00 91 1009.7
20260506000703 11 335 1.6 4.8 0.00 1.60 0.00 91 1009.5
20260506000604 11 335 1.6 4.8 0.00 1.60 0.00 91 1009.8
20260506000509 11 335 1.6 4.8 0.00 1.60 0.00 91 1009.8
20260506000403 12 335 1.6 3.2 0.00 1.60 0.00 91 1009.8
20260506000303 11 335 1.6 3.2 0.00 1.60 0.00 91 1009.7
20260506000215 11 336 0.0 3.2 0.00 1.60 0.00 91 1009.7
20260506000004 12 335 0.0 3.2 0.00 1.60 0.00 91 1009.7
20260505235904 12 335 0.0 1.6 0.00 1.60 0.00 91 1009.8
20260505235804 12 335 0.0 1.6 0.00 1.60 0.00 91 1009.8
20260505235704 12 335 0.0 1.6 0.00 1.60 0.00 91 1009.9
20260505235605 12 335 0.0 1.6 0.00 1.60 0.00 91 1009.8
20260505235504 12 336 0.0 1.6 0.00 1.60 0.00 91 1009.9
20260505235404 12 335 0.0 1.6 0.00 1.60 0.00 91 1009.8
20260505235305 12 335 0.0 1.6 0.00 1.60 0.00 91 1009.7
20260505235205 12 335 0.0 3.2 0.00 1.60 0.00 91 1009.8
20260505235103 12 336 0.0 3.2 0.00 1.60 0.00 91 1009.9
20260505235004 12 338 0.0 3.2 0.00 1.60 0.00 91 1009.9
20260505234904 12 340 1.6 3.2 0.00 1.60 0.00 91 1009.9
20260505234803 12 341 1.6 3.2 0.00 1.60 0.00 91 1010.0
20260505234704 12 342 1.6 3.2 0.00 1.60 0.00 91 1010.0
20260505234608 12 341 1.6 3.2 0.00 1.60 0.00 91 1010.0
20260505234504 12 338 1.6 3.2 0.00 1.60 0.00 91 1010.0
20260505234404 12 336 1.6 3.2 0.00 1.60 0.00 91 1010.0
20260505234315 12 334 1.6 3.2 0.00 1.60 0.00 91 1010.1
20260505234204 12 332 1.6 3.2 0.00 1.60 0.00 91 1010.1
20260505234104 12 331 1.6 3.2 0.00 1.60 0.00 91 1010.1
20260505234004 12 329 1.6 3.2 0.00 1.60 0.00 91 1010.1
20260505233904 12 323 0.0 3.2 0.00 1.60 0.00 91 1010.0
20260505233803 12 317 0.0 3.2 0.00 1.60 0.00 91 1010.0
20260505233703 12 309 0.0 3.2 0.00 1.60 0.00 91 1010.1
20260505233603 12 309 0.0 3.2 0.00 1.60 0.00 91 1010.1
20260505233505 12 309 0.0 3.2 0.00 1.60 0.00 91 1010.2
20260505233404 12 309 0.0 3.2 0.00 1.60 0.00 91 1010.1
20260505233304 12 309 0.0 3.2 0.00 1.60 0.00 91 1010.2
20260505233204 11 309 0.0 1.6 0.00 1.60 0.00 91 1010.3
20260505233103 11 309 0.0 1.6 0.00 1.60 0.00 91 1010.3
20260505233004 11 310 0.0 3.2 0.00 1.60 0.00 91 1010.3
20260505232904 11 309 0.0 3.2 0.00 1.60 0.00 91 1010.2
20260505232804 12 310 0.0 3.2 0.00 1.60 0.00 91 1010.3
20260505232709 12 310 0.0 3.2 0.00 1.60 0.00 91 1010.3
20260505232604 12 309 1.6 4.8 0.00 1.60 0.00 91 1010.3
20260505232504 12 306 1.6 4.8 0.00 1.60 0.00 91 1010.2
20260505232416 12 304 1.6 4.8 0.00 1.60 0.00 91 1010.2
20260505232305 12 303 1.6 4.8 0.00 1.60 0.00 91 1010.2
20260505232205 12 303 1.6 4.8 0.00 1.60 0.00 91 1010.1
20260505232104 12 301 1.6 4.8 0.00 1.60 0.00 91 1010.2
20260505231805 12 299 1.6 4.8 0.00 1.60 0.00 91 1010.2
20260505231704 12 297 1.6 4.8 0.00 1.60 0.00 91 1010.2
20260505231504 12 298 0.0 3.2 0.00 1.60 0.00 91 1010.3
20260505231403 12 304 0.0 3.2 0.00 1.60 0.00 91 1010.4
20260505231305 12 310 0.0 3.2 0.00 1.60 0.00 91 1010.4
20260505231204 12 322 0.0 3.2 0.00 1.60 0.00 91 1010.4
20260505231004 12 345 1.6 4.8 0.00 1.60 0.00 91 1010.5
20260505230904 12 347 1.6 4.8 0.00 1.60 0.00 91 1010.5
20260505230815 12 349 1.6 6.4 0.00 1.60 0.00 91 1010.6
20260505230704 12 347 1.6 6.4 0.00 1.60 0.00 91 1010.5
20260505230604 11 344 3.2 6.4 0.00 1.60 0.00 91 1010.5
20260505230504 11 343 3.2 6.4 0.00 1.60 0.00 91 1010.5
20260505230404 11 342 3.2 6.4 0.00 1.60 0.00 91 1010.4
20260505230304 11 342 3.2 6.4 0.00 1.60 0.00 91 1010.4
20260505230204 11 340 3.2 6.4 0.00 1.60 0.00 91 1010.4
20260505230104 11 340 3.2 6.4 0.00 1.60 0.00 91 1010.4
20260505230004 11 338 3.2 6.4 0.00 1.60 0.00 91 1010.4
20260505225903 11 336 3.2 6.4 0.00 1.60 0.00 91 1010.4
20260505225604 12 330 3.2 6.4 0.00 1.60 0.00 91 1010.4
20260505225515 12 327 3.2 6.4 0.00 1.60 0.00 91 1010.5
20260505225404 12 325 3.2 6.4 0.00 1.60 0.00 91 1010.5
20260505225306 12 323 3.2 4.8 0.00 1.60 0.00 91 1010.6
20260505225204 12 320 1.6 4.8 0.00 1.60 0.00 91 1010.6
20260505225105 12 319 1.6 4.8 0.00 1.60 0.00 91 1010.7
20260505225004 12 319 1.6 3.2 0.00 1.60 0.00 91 1010.7
20260505224904 12 319 1.6 3.2 0.00 1.60 0.00 91 1010.7
20260505224803 12 319 1.6 3.2 0.00 1.60 0.00 91 1010.7
20260505224703 12 319 1.6 3.2 0.00 1.60 0.00 91 1010.7
20260505224603 12 319 1.6 3.2 0.00 1.60 0.00 91 1010.6
20260505224403 12 319 1.6 3.2 0.00 1.60 0.00 91 1010.7
20260505224305 12 319 1.6 3.2 0.00 1.60 0.00 91 1010.6
20260505224209 12 320 1.6 3.2 0.00 1.60 0.00 91 1010.6
20260505224004 12 321 1.6 3.2 0.00 1.60 0.00 91 1010.5
20260505223916 12 322 1.6 3.2 0.00 1.60 0.00 91 1010.6
20260505223803 12 322 1.6 3.2 0.00 1.60 0.00 91 1010.6
20260505223604 12 323 1.6 3.2 0.00 1.60 0.00 91 1010.6
20260505223504 12 323 1.6 3.2 0.00 1.60 0.00 91 1010.6
20260505223405 12 323 1.6 3.2 0.00 1.60 0.00 91 1010.7
20260505223305 12 323 1.6 3.2 0.00 1.60 0.00 91 1010.6
20260505223204 12 323 0.0 3.2 0.03 1.60 0.00 91 1010.7
20260505223104 12 323 0.0 3.2 0.03 1.60 0.00 91 1010.7
20260505223004 12 323 0.0 3.2 0.03 1.60 0.00 91 1010.7
20260505222909 12 323 0.0 3.2 0.03 1.60 0.00 91 1010.7
20260505222703 12 323 0.0 1.6 0.03 1.60 0.00 91 1010.7
20260505222615 12 323 0.0 1.6 0.03 1.60 0.00 91 1010.8
20260505222504 12 323 0.0 1.6 0.03 1.60 0.00 91 1010.6
20260505222404 11 323 0.0 1.6 0.03 1.60 0.00 91 1010.7
20260505222306 11 323 0.0 1.6 0.03 1.60 0.00 91 1010.6
20260505222204 11 323 0.0 1.6 0.03 1.60 0.00 91 1010.5
20260505222103 11 323 0.0 1.6 0.03 1.60 0.00 91 1010.6
20260505222003 11 323 0.0 1.6 0.03 1.60 0.00 91 1010.4
20260505221904 11 323 0.0 3.2 0.03 1.60 0.00 91 1010.5
20260505221803 11 323 1.6 3.2 0.03 1.60 0.00 91 1010.5
20260505221704 11 323 1.6 3.2 0.03 1.60 0.00 91 1010.5
20260505221607 11 324 1.6 3.2 0.03 1.60 0.00 91 1010.5
20260505221504 11 324 1.6 3.2 0.03 1.60 0.00 91 1010.5
20260505221404 11 324 1.6 3.2 0.03 1.60 0.00 91 1010.5
20260505221314 12 324 1.6 3.2 0.03 1.60 0.00 91 1010.4
20260505221204 12 324 1.6 3.2 0.03 1.60 0.00 91 1010.5
20260505221104 12 323 1.6 3.2 0.03 1.60 0.00 91 1010.5
20260505221004 12 320 1.6 3.2 0.03 1.60 0.00 91 1010.6
20260505220703 12 311 1.6 3.2 0.03 1.60 0.00 91 1010.7
20260505220604 12 309 1.6 3.2 0.03 1.60 0.00 91 1010.6
20260505220504 12 306 1.6 3.2 0.03 1.60 0.00 91 1010.7
20260505220404 12 304 1.6 3.2 0.03 1.60 0.00 91 1010.7
20260505220104 12 289 1.6 3.2 0.03 1.60 0.00 91 1010.7
20260505220006 12 287 1.6 3.2 0.03 1.60 0.00 91 1010.7
20260505215904 12 285 0.0 3.2 0.03 1.60 1.60 91 1010.7
20260505215804 12 285 0.0 3.2 0.03 1.60 1.60 91 1010.8
20260505215704 12 285 0.0 3.2 0.03 1.60 1.60 91 1010.8
20260505215604 12 285 0.0 3.2 0.03 1.60 1.60 91 1010.8
20260505215504 12 285 0.0 3.2 0.03 1.60 1.60 91 1010.8
20260505215410 12 285 0.0 3.2 0.03 1.60 1.60 91 1010.9
20260505215305 12 285 0.0 3.2 0.03 1.60 1.60 91 1010.8
20260505215204 12 286 0.0 1.6 0.03 1.60 1.60 91 1010.9
20260505215116 12 285 0.0 1.6 0.03 1.60 1.60 91 1010.9
20260505215004 12 285 0.0 1.6 0.03 1.60 1.60 91 1010.9
20260505214904 12 286 0.0 1.6 0.03 1.60 1.60 91 1011.0
20260505214803 12 285 0.0 1.6 0.03 1.60 1.60 91 1010.9
20260505214704 12 285 0.0 1.6 0.03 1.60 1.60 91 1011.0
20260505214603 12 298 0.0 3.2 0.03 1.60 1.60 91 1010.9
20260505214504 12 302 0.0 3.2 0.03 1.60 1.60 91 1010.9
20260505214403 12 305 0.0 3.2 0.03 1.60 1.60 91 1011.0
20260505214304 12 310 1.6 3.2 0.03 1.60 1.60 91 1010.9
20260505214204 12 312 1.6 3.2 0.03 1.60 1.60 91 1010.9
20260505214105 12 314 0.0 3.2 0.03 1.60 1.60 91 1010.9
20260505214004 12 320 1.6 3.2 0.03 1.60 1.60 91 1010.9
20260505213904 12 325 1.6 3.2 0.03 1.60 1.60 91 1011.0
20260505213804 12 332 1.6 3.2 0.03 1.60 1.60 91 1011.0
20260505213704 12 337 1.6 3.2 0.03 1.60 1.60 91 1011.0
20260505213603 12 340 1.6 3.2 0.03 1.60 1.60 91 1011.0
20260505213506 12 340 1.6 4.8 0.03 1.60 1.60 91 1011.0
20260505213304 12 339 1.6 4.8 0.00 1.57 1.57 91 1011.0
20260505213211 12 337 1.6 4.8 0.00 1.57 1.57 91 1010.9
20260505213104 12 336 1.6 4.8 0.00 1.57 1.57 91 1011.1
20260505213004 11 334 1.6 4.8 0.00 1.57 1.57 91 1011.0
20260505212916 11 332 1.6 4.8 0.00 1.57 1.57 91 1011.1
20260505212804 11 331 1.6 4.8 0.00 1.57 1.57 91 1011.0
20260505212704 12 330 1.6 4.8 0.00 1.57 1.57 91 1011.0
20260505212603 12 328 1.6 4.8 0.00 1.57 1.57 91 1011.1
20260505212504 12 324 1.6 4.8 0.00 1.57 1.57 91 1011.1
20260505212403 12 321 1.6 4.8 0.00 1.57 1.57 91 1011.1
20260505212305 12 319 1.6 3.2 0.00 1.57 1.57 91 1011.0
20260505212204 12 319 1.6 3.2 0.00 1.57 1.57 91 1011.1
20260505212104 11 319 1.6 3.2 0.00 1.57 1.57 91 1011.2
20260505212004 12 319 1.6 3.2 0.03 1.57 1.57 91 1011.1
20260505211904 12 319 1.6 3.2 0.03 1.57 1.57 91 1011.1
20260505211804 11 319 1.6 3.2 0.03 1.57 1.57 91 1011.1
20260505211703 11 319 1.6 3.2 0.03 1.57 1.57 91 1011.1
20260505211604 12 319 1.6 3.2 0.03 1.57 1.57 91 1011.1
20260505211404 12 321 1.6 4.8 0.03 1.57 1.57 91 1011.2
20260505211305 12 323 1.6 4.8 0.05 1.57 1.57 91 1011.2
20260505211204 12 324 1.6 4.8 0.05 1.57 1.57 91 1011.2
20260505211104 12 324 1.6 4.8 0.05 1.57 1.57 91 1011.2
20260505211004 11 325 1.6 4.8 0.05 1.57 1.57 91 1011.2
20260505210904 11 326 1.6 4.8 0.05 1.57 1.57 91 1011.3
20260505210804 11 327 1.6 4.8 0.05 1.57 1.57 91 1011.4
20260505210704 11 328 1.6 4.8 0.05 1.57 1.57 91 1011.4
20260505210603 11 330 1.6 4.8 0.05 1.57 1.57 91 1011.3
20260505210504 11 333 1.6 3.2 0.05 1.57 1.57 91 1011.2
20260505210304 12 333 0.0 3.2 0.05 1.57 1.57 91 1011.2
20260505210004 12 334 0.0 1.6 0.05 1.57 1.57 91 1011.2
20260505205906 12 334 0.0 1.6 0.05 1.57 1.57 91 1011.2
20260505205604 11 333 0.0 1.6 0.05 1.57 1.57 91 1011.2
20260505205504 11 333 0.0 1.6 0.05 1.57 1.57 91 1011.3
20260505205404 11 333 0.0 1.6 0.05 1.57 1.57 91 1011.4
20260505205305 11 333 0.0 1.6 0.05 1.57 1.57 91 1011.3
20260505205204 11 333 0.0 1.6 0.05 1.57 1.57 91 1011.4
20260505205103 11 333 0.0 3.2 0.05 1.57 1.57 91 1011.4
20260505205004 11 333 0.0 3.2 0.05 1.57 1.57 91 1011.4
20260505204903 11 333 0.0 3.2 0.05 1.57 1.57 91 1011.3
20260505204804 11 333 1.6 3.2 0.05 1.57 1.57 91 1011.3
20260505204604 11 333 1.6 3.2 0.08 1.57 1.57 91 1011.2
20260505204304 11 336 1.6 3.2 0.08 1.57 1.57 91 1011.4
20260505204204 11 336 1.6 3.2 0.08 1.57 1.57 91 1011.4
20260505204104 11 337 1.6 3.2 0.08 1.57 1.57 91 1011.5
20260505204005 11 338 1.6 3.2 0.08 1.57 1.57 91 1011.4
20260505203804 11 339 1.6 3.2 0.08 1.57 1.57 91 1011.4
20260505203704 11 339 1.6 3.2 0.08 1.57 1.57 91 1011.3
20260505203604 11 337 1.6 3.2 0.10 1.57 1.57 91 1011.4
20260505203505 11 335 1.6 3.2 0.10 1.57 1.57 91 1011.3
20260505203404 11 331 1.6 3.2 0.10 1.57 1.57 91 1011.5
20260505203204 12 325 1.6 3.2 0.10 1.57 1.57 91 1011.4
20260505203104 12 319 1.6 3.2 0.10 1.57 1.57 91 1011.4
20260505203004 12 314 1.6 3.2 0.10 1.57 1.57 91 1011.4
20260505202903 12 309 1.6 3.2 0.10 1.57 1.57 91 1011.5
20260505202803 12 302 1.6 3.2 0.10 1.57 1.57 91 1011.4
20260505202704 12 292 1.6 3.2 0.10 1.57 1.57 91 1011.5
20260505202604 12 285 1.6 3.2 0.10 1.57 1.57 91 1011.5
20260505202504 12 285 1.6 3.2 0.10 1.57 1.57 91 1011.4
20260505202404 12 285 1.6 3.2 0.10 1.57 1.57 91 1011.5
20260505202306 12 285 1.6 3.2 0.10 1.57 1.57 91 1011.5
20260505202204 12 285 1.6 3.2 0.10 1.57 1.57 91 1011.4
20260505202004 12 284 1.6 3.2 0.08 1.55 1.55 91 1011.5
20260505201903 12 284 0.0 3.2 0.08 1.55 1.55 91 1011.5
20260505201804 12 283 0.0 3.2 0.08 1.55 1.55 91 1011.5
20260505201704 12 281 0.0 3.2 0.08 1.55 1.55 91 1011.6
20260505201504 12 278 0.0 1.6 0.08 1.55 1.55 91 1011.5
20260505201204 12 275 0.0 1.6 0.05 1.55 1.55 91 1011.6
20260505201104 12 275 0.0 3.2 0.05 1.55 1.55 91 1011.5
20260505201005 12 275 0.0 3.2 0.05 1.55 1.55 91 1011.6
20260505200804 11 284 0.0 3.2 0.05 1.55 1.55 90 1011.5
20260505200704 12 285 0.0 3.2 0.08 1.55 1.55 90 1011.5
20260505200604 12 288 0.0 3.2 0.08 1.55 1.55 90 1011.6
20260505200504 12 289 0.0 3.2 0.08 1.55 1.55 90 1011.5
20260505200404 12 294 0.0 3.2 0.08 1.55 1.55 90 1011.5
20260505200304 12 303 0.0 3.2 0.08 1.55 1.55 91 1011.5
20260505200204 12 317 0.0 3.2 0.08 1.55 1.55 91 1011.5
20260505200105 12 346 0.0 3.2 0.08 1.55 1.55 90 1011.4
20260505200004 12 359 0.0 3.2 0.08 1.55 1.55 90 1011.4
20260505195904 12 1 0.0 1.6 0.08 1.55 1.55 91 1011.5